This is the latest recevied weather packets stored in our database for station/object N6RDS-8. If no packets are shown the sender has not sent any weather packets the latest 10 day(s).
| Time | Temp. | Humidity | Pressure | Rain* | Wind** | Luminosity | Snow |
|---|---|---|---|---|---|---|---|
| 1777559931 | 15.56° C | 32% | 1017.2 hPa | 0 mm | - | 75 W/m² | - |
| 1777559626 | 15.56° C | 35% | 1017.5 hPa | 0 mm | - | 78 W/m² | - |
| 1777559324 | 15° C | 34% | 1017.2 hPa | 0 mm | - | 74 W/m² | - |
| 1777559020 | 15° C | 38% | 1017.4 hPa | 0 mm | - | 76 W/m² | - |
| 1777558716 | 14.44° C | 38% | 1017.2 hPa | 0 mm | - | 69 W/m² | - |
| 1777558412 | 13.89° C | 39% | 1017 hPa | 0 mm | - | 62 W/m² | - |
| 1777558108 | 13.89° C | 39% | 1017.4 hPa | 0 mm | - | 62 W/m² | - |
| 1777557805 | 13.33° C | 41% | 1017 hPa | 0 mm | - | 54 W/m² | - |
| 1777557501 | 13.33° C | 40% | 1017 hPa | 0 mm | - | 49 W/m² | - |
| 1777557198 | 12.78° C | 41% | 1016.8 hPa | 0 mm | - | 45 W/m² | - |
| 1777556894 | 12.78° C | 43% | 1016.8 hPa | 0 mm | - | 32 W/m² | - |
| 1777556589 | 12.78° C | 44% | 1016.9 hPa | 0 mm | - | 25 W/m² | - |
| 1777556289 | 12.78° C | 39% | 1016.8 hPa | 0 mm | - | 26 W/m² | - |
| 1777555986 | 12.78° C | 39% | 1016.6 hPa | 0 mm | - | 20 W/m² | - |
| 1777555680 | 12.78° C | 41% | 1016.6 hPa | 0 mm | - | 17 W/m² | - |
| 1777555377 | 12.78° C | 37% | 1016.7 hPa | 0 mm | - | 15 W/m² | - |
| 1777555074 | 12.78° C | 36% | 1016.5 hPa | 0 mm | - | 14 W/m² | - |
| 1777554771 | 12.78° C | 38% | 1016.6 hPa | 0 mm | - | 14 W/m² | - |
| 1777554468 | 12.78° C | 38% | 1016.8 hPa | 0 mm | - | 10 W/m² | - |
| 1777554165 | 12.22° C | 40% | 1016.7 hPa | 0 mm | - | 7 W/m² | - |
| 1777553862 | 12.22° C | 39% | 1016.5 hPa | 0 mm | - | 7 W/m² | - |
| 1777553558 | 12.22° C | 39% | 1016.8 hPa | 0 mm | - | 4 W/m² | - |
| 1777553253 | 12.22° C | 40% | 1016.8 hPa | 0 mm | - | 3 W/m² | - |
| 1777552950 | 12.22° C | 41% | 1016.7 hPa | 0 mm | - | 2 W/m² | - |
| 1777552645 | 12.22° C | 41% | 1016.5 hPa | 0 mm | - | 1 W/m² | - |
* Rain latest hour (hover to see other rain measurements)
** Current wind speed in m/s (hover to see current wind gust speed)